Weather in Jelgava

Latvia     56°39′08″N   23°43′28″E
temp.,
°C
wind,
m/s
gust,
m/s
humid.,
%
clouds,
%
prec.,
mm/h
press.,
hPa
HPBL,
m
10 april, sat
sat1000:00+6sw61472100 0.1 10091363
03:00+5sw41086100 0.6 10091125
06:00+5ssw51083100 0.2 1010853
09:00+5sw5989100 0.3 1011864
12:00+7wsw51056100 0.3 10121725
15:00+9wsw610358 0.3 10142253
18:00+8w47340 0.0 10161933
21:00+3w22580 0.0 101830
11 april, sun
sun1100:00+1sw227048 0.0 102019
03:00−1sw117641 0.0 102110
06:00−1s117673 0.0 102210
09:00+3sse1355100 0.0 1023259
12:00+8se3436100 0.0 1023910
15:00+11sse4659100 0.0 10221203
18:00+9se4978100 0.0 1021654
21:00+8ese4138866 0.0 1021391
12 april, mon
mon1200:00+9sse4168852 0.0 1020448
03:00+8sse5157982 0.0 1020439
06:00+7sse41477100 0.0 1019393
09:00+9sse51365100 0.0 1019516
12:00+13sse61047100 0.0 1019965
15:00+15sse61044100 0.0 10181418
18:00+12s41056100 0.0 10171100
21:00+11s41071100 0.0 1018670
13 april, tue
tue1300:00+9s3885100 0.1 1017412
03:00+9s2489100 0.1 1017201
06:00+8wsw1393100 0.1 1017165
09:00+6nnw2492100 0.4 1018306
12:00+6nw2489100 0.8 1019444
15:00+5nnw3684100 1.1 1019520
18:00+4nnw3692100 0.7 1020562
21:00+3nnw2697100 1.3 1021417
14 april, wed
wed1400:00+3nw2594100 0.1 1020421
03:00+3nw2593100 0.3 1020455
06:00+2nnw2791100 0.1 1020402
09:00+3n3877100 0.1 1020650
12:00+6n5766100 0.0 1020967
15:00+6n686199 0.0 1021975
18:00+5n51063100 0.0 1021817
21:00+2n5127399 0.0 1021610